Skip Page Navigation
NASA JPL Caltech
NASA Logo - Jet Propulsion Laboratory + View the NASA Portal
+ Center for Near-Earth Object Studies
JPL Home Earth Solar System Stars & Galaxies Technology
JPL Solar System Dynamics
BODIES ORBITS EPHEMERIDES TOOLS PHYSICAL DATA DISCOVERY FAQ SITE MAP
JPL Small-Body Database Browser
Search: [ help ]  
86757 (2000 GA70)
Classification: Main-belt Asteroid          SPK-ID: 2086757
Ephemeris | Orbit Diagram | Orbital Elements | Mission Design | Physical Parameters | Discovery Circumstances | Close-Approach Data ]

[ show orbit diagram ]
Orbital Elements at Epoch 2459000.5 (2020-May-31.0) TDB
Reference: JPL 20 (heliocentric ecliptic J2000)
 Element Value Uncertainty (1-sigma)   Units 
e .2304322739417502 3.7984e-08  
a 2.356897979954457 1.0151e-08 au
q 1.813792618984834 8.6706e-08 au
i 4.617693759827893 5.4627e-06 deg
node 17.44796572043239 4.6413e-05 deg
peri 276.5323346450056 4.8318e-05 deg
M 144.4461085818443 1.3193e-05 deg
tp 2458470.210596778567
(2018-Dec-17.71059678)
4.6752e-05 TDB
period 1321.629132373254
3.62
8.5381e-06
2.338e-08
d
yr
n .2723910900432006 1.7597e-09 deg/d
Q 2.90000334092408 1.249e-08 au
  Orbit Determination Parameters
   # obs. used (total)      736  
   data-arc span      10604 days (29.03 yr)  
   first obs. used      1990-11-22  
   last obs. used      2019-12-04  
   planetary ephem.      DE431  
   SB-pert. ephem.      SB431-N16  
   condition code      0  
   norm. resid. RMS      .5983  
   source      ORB  
   producer      Otto Matic  
   solution date      2019-Dec-14 08:05:44  

Additional Information
 Earth MOID = .805099 au 
 Jupiter MOID = 2.32457 au 
 T_jup = 3.513 
[ show covariance matrix ]

Ephemeris | Orbit Diagram | Orbital Elements | Mission Design | Physical Parameters | Discovery Circumstances | Close-Approach Data ]

Physical Parameter Table
Parameter Symbol Value Units Sigma Reference Notes
absolute magnitude H 16.1   n/a MPO436382  
diameter diameter 3.809 km 0.342 urn:nasa:pds:neowise_diameters_albedos::2.0[mainbelt] (http://adsabs.harvard.edu/abs/2011ApJ...741...68M)  
geometric albedo albedo 0.053   0.011 urn:nasa:pds:neowise_diameters_albedos::2.0[mainbelt] (http://adsabs.harvard.edu/abs/2011ApJ...741...68M)  

86757 (2000 GA70)          Discovered 2000-Apr-05 by LINEAR at Socorro
Reference: 20040830/Numbers.arcLast Updated: 2004-09-06

[ show close-approach data ]
Alternate Designations
 2000 GA70 = 2001 VN104 
Ephemeris | Orbit Diagram | Orbital Elements | Mission Design | Physical Parameters | Discovery Circumstances | Close-Approach Data ]
ABOUT SSD CREDITS/AWARDS PRIVACY/COPYRIGHT GLOSSARY LINKS
FirstGov 2020-Sep-20 13:13 UT
(server date/time)  
NASA Home Page
Site Manager:   Ryan S. Park
Webmaster  Alan B. Chamberlin